SCP
0 0 0 0 0 0 0 0 0 0 0 0 0 0 -0 -0 -0 0 0 -0 -0 0 0 -0 -0 0 0 0 0 0 0 0 0 0 0 0 0 0 0 0 0 0 0 0 0 0 0 0 0
0 0 0 0 0 0 0 0 0 0 0 0 -0 -0 -0 -0 -0 -0 0 0 0 0 0 0 -0 0 0 0 0 0 0 0 0 0 0 0 0 0 0 0 0 0 0 0 0 0 0 0 0
0 0 0 0 0 0 0 0 0 0 0 0 0 -0 0 0 0 0 -0 0 0 0 0 0 -0 0 0 0 0 0 0 0 0 0 0 0 0 0 0 0 0 0 0 0 0 0 0 0 0
0 0 0 0 0 0 0 0 0 0 0 0 0 0 0 0 0 0 0 0 0 0 0 -0 -0 -0 -0 -0 0 0 0 0 0 0 0 0 0 0 0 0 0 0 0 0 0 0 0 0 0
0 0 0 0 0 0 0 0 0 0 0 0 0 0 0 0 -0 0 0 0 0 0 0 0 0 1 0 0 0 0 0 0 0 0 0 0 0 0 0 0 0 0 0 0 0 0 0 0 0
0 0 0 0 0 0 0 0 0 0 0 0 0 0 -0 0 0 0 0 0 0 0 0 0 0 1 0 0 0 1 1 0 0 0 0 0 0 0 0 0 0 0 0 0 0 0 0 0 0
0 0 0 0 0 0 0 0 0 0 0 0 0 0 0 0 0 -0 0 0 0 0 0 0 0 0 1 0 1 1 1 1 1 1 1 0 0 0 0 0 0 0 0 0 0 0 0 0 0
0 0 0 0 0 0 0 0 0 0 0 0 0 0 0 0 0 0 0 0 0 0 0 0 0 0 0 0 1 1 1 1 1 1 1 1 1 1 0 0 0 0 0 0 0 0 0 0 0
0 0 0 0 0 0 0 0 0 0 0 0 0 0 0 0 0 0 0 0 0 0 0 0 0 0 1 0 1 1 1 1 1 1 1 1 0 0 0 0 0 1 0 0 0 0 1 1 0
0 0 0 0 0 0 0 0 0 0 0 0 0 0 0 0 0 0 0 0 0 0 0 0 0 0 1 1 1 1 1 1 1 0 1 0 0 1 0 0 1 1 1 1 1 1 1 1 0
0 0 0 0 0 0 0 0 0 0 0 0 0 0 0 0 0 0 0 0 0 -0 0 0 0 0 1 1 1 1 3 2 2 1 2 1 1 1 1 1 1 1 1 1 1 1 1 0 0
0 0 0 0 0 0 0 0 0 0 0 -0 -0 -0 -0 0 0 0 0 0 0 0 0 0 0 0 1 1 1 1 2 2 2 2 2 2 2 1 1 1 1 1 1 1 1 1 1 1 1
0 0 0 0 0 0 0 0 0 0 0 -0 -0 -0 -0 -0 0 0 0 0 0 0 0 0 0 1 1 2 1 1 1 1 1 1 1 2 1 2 1 1 1 1 1 1 1 1 2 1 1
0 0 0 0 0 0 0 0 0 -0 -0 0 0 0 0 0 0 0 0 0 0 0 0 0 0 1 1 1 2 3 2 1 1 1 1 2 1 2 1 1 1 1 1 1 1 1 2 1 1
0 0 0 0 0 0 0 0 0 0 0 0 0 0 0 0 0 0 0 0 0 0 0 0 0 0 1 2 2 2 1 1 1 1 1 1 1 1 1 1 1 1 1 1 1 1 1 1 1
0 0 0 0 0 0 0 0 0 0 0 0 -0 -0 0 0 0 0 0 0 0 0 0 0 0 0 1 2 2 1 1 1 1 1 0 0 1 1 1 0 1 1 1 1 1 1 1 1 1
0 0 0 0 0 0 0 0 0 0 0 0 0 0 0 0 0 0 0 0 0 0 0 0 0 0 0 1 1 1 1 1 1 1 0 0 0 0 0 0 1 1 1 1 1 1 1 1 1
0 0 0 0 0 0 0 0 0 0 0 0 0 0 0 0 0 0 0 0 0 0 0 0 0 0 0 0 1 1 1 1 1 1 1 0 0 0 0 0 1 1 1 1 1 1 1 1 1
0 0 0 0 0 0 0 0 0 0 0 0 0 0 0 0 0 0 0 0 0 0 0 0 0 0 0 0 0 1 1 1 1 1 1 1 0 0 1 1 1 1 0 1 1 1 1 1 1
0 0 0 0 0 0 0 0 0 0 0 0 0 0 0 0 0 0 0 0 0 0 0 0 0 0 0 0 1 1 1 1 1 1 1 1 0 1 1 1 0 0 0 1 1 1 1 1 0
0 0 0 0 0 0 0 0 0 0 0 0 0 0 0 0 -0 -0 0 0 0 0 0 0 0 0 0 0 1 2 1 0 1 1 1 0 0 1 1 0 0 0 1 1 1 1 1 0 0
0 0 0 0 0 0 0 0 0 0 0 0 0 0 0 0 0 0 0 0 0 0 0 0 0 0 0 0 1 1 1 1 1 0 1 1 1 1 1 0 0 1 1 1 1 0 0 0 0
0 0 0 0 0 0 0 0 -0 -0 -0 0 0 0 0 -0 0 0 0 0 0 0 0 0 0 0 0 0 1 1 1 1 1 1 1 1 1 1 1 0 1 1 0 0 0 0 0 0 0
0 -0 -0 0 0 0 0 0 -0 0 -0 -0 -0 -0 0 0 0 0 0 0 0 0 0 0 0 0 0 0 1 0 1 0 1 1 1 1 1 1 1 0 0 0 0 0 0 0 0 0 0
0 0 0 0 0 0 0 0 0 0 0 0 0 0 0 0 0 0 0 0 0 0 0 0 0 0 0 1 0 0 0 0 1 0 1 1 1 0 0 0 0 0 0 0 0 0 0 0 0
0 0 0 0 0 0 0 0 0 -0 -0 0 -0 0 0 0 0 0 0 0 0 0 0 0 0 1 1 0 0 0 0 0 0 0 0 0 0 0 0 0 0 0 0 0 0 0 0 0 0
0 0 0 0 0 0 0 0 0 0 0 0 0 0 0 0 0 0 0 0 0 0 0 0 0 0 0 0 0 0 0 0 0 0 0 0 0 0 0 0 0 0 0 0 0 0 0 0 0
0 0 0 0 0 0 0 0 0 0 0 0 0 0 -0 0 0 0 0 0 0 0 0 0 0 0 0 0 0 0 0 0 0 0 0 0 0 0 0 0 0 0 0 0 0 0 0 0 0
0 0 0 0 0 0 0 0 0 0 0 0 0 0 0 -0 0 0 0 0 0 0 0 0 0 -0 0 0 0 0 0 0 0 0 0 0 0 0 0 0 0 0 0 0 0 0 0 0 0
0 0 0 0 0 0 0 0 0 0 0 0 0 0 0 0 0 0 0 0 0 0 0 0 0 0 0 0 0 0 0 0 0 0 0 0 0 0 0 0 0 0 0 0 0 0 0 0 0
Wind_Speed_500mb
16 11 15 12 7 3 8 10 8 9 5 8 13 14 38 13 25 5 26 39 36 36 42 45 42 35 28 27 25 26 27 29 28 26 23 20 17 15 15 15 11 9 8 6 4 2 2 4 5
15 15 15 4 7 10 10 10 18 16 10 14 17 12 18 19 28 7 39 43 38 32 41 44 43 37 29 27 26 27 28 27 27 25 24 22 19 17 14 14 14 10 8 6 6 5 4 4 5
16 22 8 6 7 18 9 11 17 2 19 10 3 8 8 8 30 11 42 43 39 35 38 41 40 36 33 31 30 31 30 28 29 28 26 22 20 17 14 12 10 11 9 7 6 4 4 6 6
19 11 1 10 24 19 16 7 5 16 6 11 8 9 8 11 20 32 38 41 42 37 37 39 38 36 35 35 35 34 34 32 33 32 29 26 23 20 16 13 11 9 8 6 4 3 5 7 7
22 6 9 10 29 13 18 21 23 27 16 12 16 7 5 18 25 48 38 41 46 39 36 38 42 39 39 41 39 38 38 38 37 36 33 32 28 24 20 17 14 9 7 6 5 4 5 8 11
10 2 7 28 23 14 21 24 21 24 27 14 13 5 7 17 34 50 37 35 40 38 34 37 43 51 46 46 45 44 43 43 44 41 38 38 35 31 26 22 17 12 8 6 4 4 6 8 12
11 8 17 14 13 21 29 28 32 25 16 15 8 12 5 28 32 48 34 35 37 33 36 36 41 48 52 52 53 51 49 49 48 48 46 44 40 37 32 29 23 17 12 9 7 6 8 8 11
14 6 18 20 25 24 10 8 8 26 13 6 6 7 8 4 35 41 43 42 36 33 38 40 41 45 53 58 60 57 58 56 55 55 53 50 48 45 40 35 29 24 19 13 12 11 11 10 12
23 14 25 35 26 13 4 15 9 10 14 9 7 7 10 12 26 37 38 42 37 38 39 38 41 44 51 58 63 61 66 64 64 63 61 59 59 56 50 44 35 29 24 19 17 16 16 12 12
23 19 33 17 27 14 26 22 13 9 13 13 16 14 6 9 6 26 32 32 28 37 43 43 41 48 54 60 65 69 73 74 76 74 73 70 70 65 58 49 42 35 29 24 22 21 20 17 15
25 39 42 35 37 33 39 36 21 17 24 32 20 2 8 16 15 13 25 25 32 44 52 52 48 53 60 62 66 73 79 81 83 83 82 78 78 72 65 58 50 44 37 32 28 27 27 22 21
29 48 57 38 26 15 31 40 36 43 56 34 35 41 43 44 42 36 32 34 36 40 42 43 46 43 42 53 65 75 83 87 88 90 89 87 85 82 74 68 59 50 45 39 34 33 31 27 26
47 45 41 59 42 28 22 54 45 53 55 52 59 50 53 48 56 51 43 40 36 36 39 37 31 42 50 55 64 72 82 89 93 93 94 92 92 91 82 74 62 58 52 47 43 39 35 31 29
26 50 58 49 39 43 41 62 48 49 39 51 49 63 55 46 46 48 50 49 44 45 43 38 42 50 57 56 57 59 67 80 90 94 92 93 95 95 87 75 69 60 55 50 47 40 33 33 34
38 38 26 35 57 40 22 47 70 60 60 58 67 63 67 76 66 67 66 64 48 50 44 47 51 64 54 53 50 53 58 66 76 84 86 90 90 91 88 76 74 64 57 56 49 38 38 38 38
22 25 44 53 23 22 38 60 70 63 61 70 67 68 64 66 65 60 57 56 53 50 52 52 68 62 59 55 50 50 56 61 72 71 77 83 81 77 72 72 75 66 58 57 48 40 37 39 39
25 42 55 39 47 35 35 56 57 66 41 48 47 52 56 58 56 73 73 72 68 58 59 69 68 61 59 53 50 51 55 60 65 62 65 74 68 61 49 58 63 60 58 54 45 38 36 36 38
40 32 35 42 30 38 45 66 54 50 40 49 48 53 59 66 73 79 80 72 70 74 78 60 55 50 52 49 50 50 53 58 60 58 64 63 54 44 40 45 52 51 52 48 40 31 30 32 32
36 21 42 36 14 29 53 60 49 50 61 62 63 60 63 71 67 69 87 84 82 71 65 58 49 44 48 51 50 52 52 56 53 55 60 43 38 35 36 41 41 39 47 41 34 28 26 29 33
38 39 29 21 23 16 28 44 33 32 43 55 57 63 65 69 69 77 81 76 69 66 60 58 49 48 50 53 49 48 46 49 51 52 39 33 31 30 34 32 30 34 38 40 31 25 27 33 35
37 42 43 28 23 30 25 48 48 45 50 62 66 68 67 70 71 74 84 79 68 63 54 51 52 52 56 52 40 40 43 42 43 46 35 31 32 30 27 24 28 30 33 30 27 31 32 34 33
40 22 25 33 28 29 12 24 31 28 35 40 51 54 66 70 66 88 92 92 86 75 69 66 62 56 58 48 38 38 42 39 36 27 29 30 32 30 28 29 31 28 27 27 28 32 32 32 27
27 37 28 16 20 22 40 23 41 26 39 37 32 49 60 70 64 63 69 70 63 58 57 59 54 55 49 39 39 37 34 32 27 27 32 36 34 34 31 34 30 26 30 25 24 30 32 27 23
28 27 42 35 28 32 39 20 45 35 46 40 36 54 49 39 40 47 53 50 43 39 35 35 41 41 33 34 31 28 25 27 32 36 39 37 36 29 33 34 33 30 27 24 28 29 25 22 18
16 22 16 21 22 37 19 26 46 14 11 5 18 30 42 45 43 41 47 48 43 39 30 33 28 28 28 30 28 28 25 26 30 39 39 33 35 37 33 29 27 25 24 28 27 22 20 16 14
26 30 17 29 24 33 26 25 17 16 33 27 14 20 32 42 35 37 30 35 32 30 31 27 24 29 35 35 35 33 32 35 34 32 30 32 34 27 22 24 26 25 28 26 22 21 19 19 15
30 19 37 15 4 16 23 35 34 35 37 23 27 25 36 43 44 33 27 22 28 26 22 27 35 41 42 41 40 41 40 38 36 35 34 32 27 24 23 23 24 25 21 20 20 22 22 21 16
15 9 21 16 10 15 18 34 17 2 13 11 22 30 49 55 44 19 13 15 20 28 38 44 45 46 47 45 45 45 40 37 37 35 30 27 23 21 20 19 20 18 17 16 19 19 21 19 17
17 12 10 19 22 7 5 6 4 21 21 21 27 38 53 54 28 3 12 29 40 46 49 50 49 51 51 49 47 45 42 36 33 30 28 24 20 18 18 19 17 15 13 13 13 17 21 22 19
5 12 18 15 37 23 18 9 4 15 22 28 37 56 55 40 19 1 18 38 45 47 51 53 53 53 50 48 47 42 37 35 31 27 24 22 22 23 23 19 14 9 9 14 15 17 18 21 26
Wind_Direction_500mb
203 192 163 161 199 239 233 241 261 231 215 152 164 177 185 179 170 211 164 173 174 185 195 194 195 189 188 188 183 177 176 173 171 169 169 169 168 160 154 143 130 129 132 135 144 173 229 231 232
190 177 164 175 212 219 229 215 227 239 289 297 183 203 190 215 196 269 162 164 171 176 195 194 192 191 194 196 197 191 188 183 182 182 180 180 178 171 167 161 149 142 141 144 154 163 191 228 252
182 173 175 208 203 219 244 199 225 193 295 270 305 221 193 193 209 187 162 169 178 179 193 196 195 193 202 204 208 203 199 199 197 192 192 193 190 184 178 168 158 155 158 164 168 179 215 231 247
175 177 215 232 230 231 241 24 109 329 314 240 251 260 252 208 176 174 159 175 186 190 197 202 204 201 208 212 216 211 209 212 208 204 203 205 203 199 192 185 181 172 168 170 184 218 243 247 248
176 176 229 238 235 244 261 262 277 294 285 251 235 222 242 191 176 168 173 179 192 196 197 200 211 214 216 216 221 222 217 221 218 214 213 214 213 212 208 203 201 195 182 183 203 234 265 273 269
176 210 217 237 240 234 251 266 277 272 289 287 212 226 221 181 170 173 178 185 191 203 207 208 215 220 223 226 228 229 226 228 225 224 223 225 223 222 218 216 215 214 218 214 223 260 287 286 279
219 192 231 240 253 262 254 255 253 263 269 246 219 191 202 192 177 184 186 188 196 209 217 221 224 226 229 233 235 232 236 233 232 231 232 232 232 231 227 225 223 224 233 247 257 275 284 288 292
210 231 230 236 233 250 238 225 230 227 229 177 193 175 87 303 198 194 201 200 202 212 224 228 233 237 238 240 238 238 239 238 239 238 237 238 238 236 233 231 230 230 236 246 261 279 279 289 312
189 227 236 234 213 228 195 231 253 229 253 268 218 130 29 16 191 209 206 208 219 228 234 237 242 247 249 249 247 246 244 243 244 242 239 240 239 237 234 235 236 235 237 247 257 263 260 271 290
197 219 229 224 220 224 241 244 253 281 235 260 241 263 266 58 138 212 221 220 242 248 248 246 248 253 253 254 258 252 251 246 244 242 241 238 241 240 239 239 237 238 240 246 251 254 254 261 273
213 229 229 234 230 228 250 256 258 257 265 252 254 303 281 249 276 265 253 240 272 275 265 262 264 267 263 263 265 261 255 254 250 246 245 242 243 242 238 237 234 236 238 244 250 253 253 253 260
243 233 237 246 233 230 245 263 254 247 250 259 270 286 286 283 279 276 263 275 275 274 275 266 263 275 275 272 276 267 261 259 255 253 248 245 244 243 240 238 238 240 242 246 251 251 251 253 256
233 242 244 245 243 241 262 265 255 263 259 265 272 274 274 272 273 272 270 269 269 259 289 263 268 279 280 281 277 274 270 261 258 255 253 250 247 246 241 242 241 244 242 248 249 252 251 252 254
235 241 246 247 242 241 245 261 267 250 255 271 278 278 275 269 274 281 273 268 269 270 270 279 281 294 292 282 284 282 271 267 263 259 258 256 250 250 246 244 243 247 248 248 249 251 252 254 252
257 258 246 238 238 235 217 269 254 257 261 258 264 268 274 279 282 278 277 282 276 272 269 281 292 297 289 299 288 277 270 265 264 263 261 257 255 252 252 245 244 248 248 245 246 253 254 256 255
241 236 242 233 220 233 196 252 259 257 259 264 269 271 272 273 278 278 276 277 274 272 279 284 296 296 297 299 289 276 264 260 261 263 259 259 259 258 256 248 244 245 243 242 245 249 251 256 258
223 239 232 249 229 229 202 244 256 255 251 258 261 266 272 276 273 273 273 279 278 276 281 289 289 292 296 294 282 276 264 259 261 261 256 256 259 261 257 247 244 241 239 239 242 241 252 260 261
234 241 257 252 233 222 226 242 248 261 264 254 259 264 267 270 271 279 282 280 275 279 281 279 279 289 292 289 274 270 262 255 256 255 250 255 260 262 246 240 234 233 231 230 229 236 250 259 264
262 303 259 251 210 233 226 245 246 250 256 263 263 263 265 269 274 274 279 278 280 278 273 266 271 286 296 299 276 263 253 253 253 246 249 254 254 245 235 224 227 221 220 220 216 233 246 263 267
244 250 253 280 264 255 249 260 256 257 259 264 267 268 267 272 274 277 278 280 277 277 273 268 270 290 295 294 274 255 249 252 247 243 247 245 238 228 216 208 213 201 201 199 214 235 254 259 264
240 240 242 248 279 277 270 271 262 255 256 261 260 263 267 266 271 274 279 276 277 276 272 273 281 284 285 293 260 240 242 246 241 239 234 227 217 202 201 170 183 186 190 202 224 241 257 265 272
245 230 237 237 238 251 211 272 264 257 255 254 260 258 261 266 266 271 272 273 275 274 276 277 278 276 280 279 244 238 241 243 249 239 218 203 195 190 177 171 175 179 190 213 236 246 259 269 262
252 230 239 246 246 263 251 271 267 250 258 255 268 261 260 260 268 268 271 277 275 270 267 263 262 266 269 249 230 232 233 233 225 203 190 186 179 169 175 177 181 184 203 222 256 257 268 262 246
229 218 217 229 239 247 241 241 276 257 261 261 257 257 264 279 288 270 269 278 273 270 263 251 247 253 252 223 214 213 210 206 190 181 177 170 167 177 175 183 197 213 223 240 253 264 256 252 246
231 201 189 205 210 234 219 213 244 338 97 319 296 291 288 294 293 286 276 274 266 265 257 238 230 234 217 194 182 176 170 174 175 167 165 166 174 176 182 192 206 224 233 251 257 244 241 236 235
223 217 219 214 204 233 206 221 244 248 268 266 292 303 299 302 305 300 288 260 254 239 236 221 211 194 179 166 160 153 152 155 154 154 153 156 161 167 183 203 217 233 249 245 228 233 231 233 249
226 225 232 295 263 215 198 243 267 267 281 277 298 332 331 326 317 301 283 251 234 242 203 180 171 163 157 156 154 148 148 150 150 148 147 154 164 178 197 209 229 238 221 218 229 232 233 242 254
250 252 207 214 230 212 215 234 245 127 233 42 20 2 346 340 325 280 250 195 167 151 150 152 154 156 152 151 148 146 147 149 148 150 156 166 174 192 207 216 203 198 203 214 231 236 238 239 241
266 219 241 251 238 282 267 155 170 112 70 20 9 354 348 344 339 291 154 145 146 147 148 150 151 148 146 146 145 144 143 145 149 154 163 173 187 192 176 174 182 190 205 223 243 251 239 224 220
253 293 239 244 226 239 283 271 112 104 27 3 350 342 342 343 340 12 151 152 147 146 148 149 148 145 145 146 145 146 149 149 154 161 170 174 174 157 152 154 161 182 232 256 264 250 234 224 217
Wind_Speed_850mb
16 11 15 12 7 3 8 10 8 9 5 8 13 14 38 13 25 5 26 39 36 36 42 45 42 35 28 27 25 26 27 29 28 26 23 20 17 15 15 15 11 9 8 6 4 2 2 4 5
15 15 15 4 7 10 10 10 18 16 10 14 17 12 18 19 28 7 39 43 38 32 41 44 43 37 29 27 26 27 28 27 27 25 24 22 19 17 14 14 14 10 8 6 6 5 4 4 5
16 22 8 6 7 18 9 11 17 2 19 10 3 8 8 8 30 11 42 43 39 35 38 41 40 36 33 31 30 31 30 28 29 28 26 22 20 17 14 12 10 11 9 7 6 4 4 6 6
19 11 1 10 24 19 16 7 5 16 6 11 8 9 8 11 20 32 38 41 42 37 37 39 38 36 35 35 35 34 34 32 33 32 29 26 23 20 16 13 11 9 8 6 4 3 5 7 7
22 6 9 10 29 13 18 21 23 27 16 12 16 7 5 18 25 48 38 41 46 39 36 38 42 39 39 41 39 38 38 38 37 36 33 32 28 24 20 17 14 9 7 6 5 4 5 8 11
10 2 7 28 23 14 21 24 21 24 27 14 13 5 7 17 34 50 37 35 40 38 34 37 43 51 46 46 45 44 43 43 44 41 38 38 35 31 26 22 17 12 8 6 4 4 6 8 12
11 8 17 14 13 21 29 28 32 25 16 15 8 12 5 28 32 48 34 35 37 33 36 36 41 48 52 52 53 51 49 49 48 48 46 44 40 37 32 29 23 17 12 9 7 6 8 8 11
14 6 18 20 25 24 10 8 8 26 13 6 6 7 8 4 35 41 43 42 36 33 38 40 41 45 53 58 60 57 58 56 55 55 53 50 48 45 40 35 29 24 19 13 12 11 11 10 12
23 14 25 35 26 13 4 15 9 10 14 9 7 7 10 12 26 37 38 42 37 38 39 38 41 44 51 58 63 61 66 64 64 63 61 59 59 56 50 44 35 29 24 19 17 16 16 12 12
23 19 33 17 27 14 26 22 13 9 13 13 16 14 6 9 6 26 32 32 28 37 43 43 41 48 54 60 65 69 73 74 76 74 73 70 70 65 58 49 42 35 29 24 22 21 20 17 15
25 39 42 35 37 33 39 36 21 17 24 32 20 2 8 16 15 13 25 25 32 44 52 52 48 53 60 62 66 73 79 81 83 83 82 78 78 72 65 58 50 44 37 32 28 27 27 22 21
29 48 57 38 26 15 31 40 36 43 56 34 35 41 43 44 42 36 32 34 36 40 42 43 46 43 42 53 65 75 83 87 88 90 89 87 85 82 74 68 59 50 45 39 34 33 31 27 26
47 45 41 59 42 28 22 54 45 53 55 52 59 50 53 48 56 51 43 40 36 36 39 37 31 42 50 55 64 72 82 89 93 93 94 92 92 91 82 74 62 58 52 47 43 39 35 31 29
26 50 58 49 39 43 41 62 48 49 39 51 49 63 55 46 46 48 50 49 44 45 43 38 42 50 57 56 57 59 67 80 90 94 92 93 95 95 87 75 69 60 55 50 47 40 33 33 34
38 38 26 35 57 40 22 47 70 60 60 58 67 63 67 76 66 67 66 64 48 50 44 47 51 64 54 53 50 53 58 66 76 84 86 90 90 91 88 76 74 64 57 56 49 38 38 38 38
22 25 44 53 23 22 38 60 70 63 61 70 67 68 64 66 65 60 57 56 53 50 52 52 68 62 59 55 50 50 56 61 72 71 77 83 81 77 72 72 75 66 58 57 48 40 37 39 39
25 42 55 39 47 35 35 56 57 66 41 48 47 52 56 58 56 73 73 72 68 58 59 69 68 61 59 53 50 51 55 60 65 62 65 74 68 61 49 58 63 60 58 54 45 38 36 36 38
40 32 35 42 30 38 45 66 54 50 40 49 48 53 59 66 73 79 80 72 70 74 78 60 55 50 52 49 50 50 53 58 60 58 64 63 54 44 40 45 52 51 52 48 40 31 30 32 32
36 21 42 36 14 29 53 60 49 50 61 62 63 60 63 71 67 69 87 84 82 71 65 58 49 44 48 51 50 52 52 56 53 55 60 43 38 35 36 41 41 39 47 41 34 28 26 29 33
38 39 29 21 23 16 28 44 33 32 43 55 57 63 65 69 69 77 81 76 69 66 60 58 49 48 50 53 49 48 46 49 51 52 39 33 31 30 34 32 30 34 38 40 31 25 27 33 35
37 42 43 28 23 30 25 48 48 45 50 62 66 68 67 70 71 74 84 79 68 63 54 51 52 52 56 52 40 40 43 42 43 46 35 31 32 30 27 24 28 30 33 30 27 31 32 34 33
40 22 25 33 28 29 12 24 31 28 35 40 51 54 66 70 66 88 92 92 86 75 69 66 62 56 58 48 38 38 42 39 36 27 29 30 32 30 28 29 31 28 27 27 28 32 32 32 27
27 37 28 16 20 22 40 23 41 26 39 37 32 49 60 70 64 63 69 70 63 58 57 59 54 55 49 39 39 37 34 32 27 27 32 36 34 34 31 34 30 26 30 25 24 30 32 27 23
28 27 42 35 28 32 39 20 45 35 46 40 36 54 49 39 40 47 53 50 43 39 35 35 41 41 33 34 31 28 25 27 32 36 39 37 36 29 33 34 33 30 27 24 28 29 25 22 18
16 22 16 21 22 37 19 26 46 14 11 5 18 30 42 45 43 41 47 48 43 39 30 33 28 28 28 30 28 28 25 26 30 39 39 33 35 37 33 29 27 25 24 28 27 22 20 16 14
26 30 17 29 24 33 26 25 17 16 33 27 14 20 32 42 35 37 30 35 32 30 31 27 24 29 35 35 35 33 32 35 34 32 30 32 34 27 22 24 26 25 28 26 22 21 19 19 15
30 19 37 15 4 16 23 35 34 35 37 23 27 25 36 43 44 33 27 22 28 26 22 27 35 41 42 41 40 41 40 38 36 35 34 32 27 24 23 23 24 25 21 20 20 22 22 21 16
15 9 21 16 10 15 18 34 17 2 13 11 22 30 49 55 44 19 13 15 20 28 38 44 45 46 47 45 45 45 40 37 37 35 30 27 23 21 20 19 20 18 17 16 19 19 21 19 17
17 12 10 19 22 7 5 6 4 21 21 21 27 38 53 54 28 3 12 29 40 46 49 50 49 51 51 49 47 45 42 36 33 30 28 24 20 18 18 19 17 15 13 13 13 17 21 22 19
5 12 18 15 37 23 18 9 4 15 22 28 37 56 55 40 19 1 18 38 45 47 51 53 53 53 50 48 47 42 37 35 31 27 24 22 22 23 23 19 14 9 9 14 15 17 18 21 26
Wind_Direction_850mb
203 192 163 161 199 239 233 241 261 231 215 152 164 177 185 179 170 211 164 173 174 185 195 194 195 189 188 188 183 177 176 173 171 169 169 169 168 160 154 143 130 129 132 135 144 173 229 231 232
190 177 164 175 212 219 229 215 227 239 289 297 183 203 190 215 196 269 162 164 171 176 195 194 192 191 194 196 197 191 188 183 182 182 180 180 178 171 167 161 149 142 141 144 154 163 191 228 252
182 173 175 208 203 219 244 199 225 193 295 270 305 221 193 193 209 187 162 169 178 179 193 196 195 193 202 204 208 203 199 199 197 192 192 193 190 184 178 168 158 155 158 164 168 179 215 231 247
175 177 215 232 230 231 241 24 109 329 314 240 251 260 252 208 176 174 159 175 186 190 197 202 204 201 208 212 216 211 209 212 208 204 203 205 203 199 192 185 181 172 168 170 184 218 243 247 248
176 176 229 238 235 244 261 262 277 294 285 251 235 222 242 191 176 168 173 179 192 196 197 200 211 214 216 216 221 222 217 221 218 214 213 214 213 212 208 203 201 195 182 183 203 234 265 273 269
176 210 217 237 240 234 251 266 277 272 289 287 212 226 221 181 170 173 178 185 191 203 207 208 215 220 223 226 228 229 226 228 225 224 223 225 223 222 218 216 215 214 218 214 223 260 287 286 279
219 192 231 240 253 262 254 255 253 263 269 246 219 191 202 192 177 184 186 188 196 209 217 221 224 226 229 233 235 232 236 233 232 231 232 232 232 231 227 225 223 224 233 247 257 275 284 288 292
210 231 230 236 233 250 238 225 230 227 229 177 193 175 87 303 198 194 201 200 202 212 224 228 233 237 238 240 238 238 239 238 239 238 237 238 238 236 233 231 230 230 236 246 261 279 279 289 312
189 227 236 234 213 228 195 231 253 229 253 268 218 130 29 16 191 209 206 208 219 228 234 237 242 247 249 249 247 246 244 243 244 242 239 240 239 237 234 235 236 235 237 247 257 263 260 271 290
197 219 229 224 220 224 241 244 253 281 235 260 241 263 266 58 138 212 221 220 242 248 248 246 248 253 253 254 258 252 251 246 244 242 241 238 241 240 239 239 237 238 240 246 251 254 254 261 273
213 229 229 234 230 228 250 256 258 257 265 252 254 303 281 249 276 265 253 240 272 275 265 262 264 267 263 263 265 261 255 254 250 246 245 242 243 242 238 237 234 236 238 244 250 253 253 253 260
243 233 237 246 233 230 245 263 254 247 250 259 270 286 286 283 279 276 263 275 275 274 275 266 263 275 275 272 276 267 261 259 255 253 248 245 244 243 240 238 238 240 242 246 251 251 251 253 256
233 242 244 245 243 241 262 265 255 263 259 265 272 274 274 272 273 272 270 269 269 259 289 263 268 279 280 281 277 274 270 261 258 255 253 250 247 246 241 242 241 244 242 248 249 252 251 252 254
235 241 246 247 242 241 245 261 267 250 255 271 278 278 275 269 274 281 273 268 269 270 270 279 281 294 292 282 284 282 271 267 263 259 258 256 250 250 246 244 243 247 248 248 249 251 252 254 252
257 258 246 238 238 235 217 269 254 257 261 258 264 268 274 279 282 278 277 282 276 272 269 281 292 297 289 299 288 277 270 265 264 263 261 257 255 252 252 245 244 248 248 245 246 253 254 256 255
241 236 242 233 220 233 196 252 259 257 259 264 269 271 272 273 278 278 276 277 274 272 279 284 296 296 297 299 289 276 264 260 261 263 259 259 259 258 256 248 244 245 243 242 245 249 251 256 258
223 239 232 249 229 229 202 244 256 255 251 258 261 266 272 276 273 273 273 279 278 276 281 289 289 292 296 294 282 276 264 259 261 261 256 256 259 261 257 247 244 241 239 239 242 241 252 260 261
234 241 257 252 233 222 226 242 248 261 264 254 259 264 267 270 271 279 282 280 275 279 281 279 279 289 292 289 274 270 262 255 256 255 250 255 260 262 246 240 234 233 231 230 229 236 250 259 264
262 303 259 251 210 233 226 245 246 250 256 263 263 263 265 269 274 274 279 278 280 278 273 266 271 286 296 299 276 263 253 253 253 246 249 254 254 245 235 224 227 221 220 220 216 233 246 263 267
244 250 253 280 264 255 249 260 256 257 259 264 267 268 267 272 274 277 278 280 277 277 273 268 270 290 295 294 274 255 249 252 247 243 247 245 238 228 216 208 213 201 201 199 214 235 254 259 264
240 240 242 248 279 277 270 271 262 255 256 261 260 263 267 266 271 274 279 276 277 276 272 273 281 284 285 293 260 240 242 246 241 239 234 227 217 202 201 170 183 186 190 202 224 241 257 265 272
245 230 237 237 238 251 211 272 264 257 255 254 260 258 261 266 266 271 272 273 275 274 276 277 278 276 280 279 244 238 241 243 249 239 218 203 195 190 177 171 175 179 190 213 236 246 259 269 262
252 230 239 246 246 263 251 271 267 250 258 255 268 261 260 260 268 268 271 277 275 270 267 263 262 266 269 249 230 232 233 233 225 203 190 186 179 169 175 177 181 184 203 222 256 257 268 262 246
229 218 217 229 239 247 241 241 276 257 261 261 257 257 264 279 288 270 269 278 273 270 263 251 247 253 252 223 214 213 210 206 190 181 177 170 167 177 175 183 197 213 223 240 253 264 256 252 246
231 201 189 205 210 234 219 213 244 338 97 319 296 291 288 294 293 286 276 274 266 265 257 238 230 234 217 194 182 176 170 174 175 167 165 166 174 176 182 192 206 224 233 251 257 244 241 236 235
223 217 219 214 204 233 206 221 244 248 268 266 292 303 299 302 305 300 288 260 254 239 236 221 211 194 179 166 160 153 152 155 154 154 153 156 161 167 183 203 217 233 249 245 228 233 231 233 249
226 225 232 295 263 215 198 243 267 267 281 277 298 332 331 326 317 301 283 251 234 242 203 180 171 163 157 156 154 148 148 150 150 148 147 154 164 178 197 209 229 238 221 218 229 232 233 242 254
250 252 207 214 230 212 215 234 245 127 233 42 20 2 346 340 325 280 250 195 167 151 150 152 154 156 152 151 148 146 147 149 148 150 156 166 174 192 207 216 203 198 203 214 231 236 238 239 241
266 219 241 251 238 282 267 155 170 112 70 20 9 354 348 344 339 291 154 145 146 147 148 150 151 148 146 146 145 144 143 145 149 154 163 173 187 192 176 174 182 190 205 223 243 251 239 224 220
253 293 239 244 226 239 283 271 112 104 27 3 350 342 342 343 340 12 151 152 147 146 148 149 148 145 145 146 145 146 149 149 154 161 170 174 174 157 152 154 161 182 232 256 264 250 234 224 217